Change the Weather History Date:

Thursday, November 15, 2012

  Actual Average Record
Temperature  
Mean Temperature 40 °F -  
Max Temperature 44 °F 46 °F 59 °F (1997)
Min Temperature 37 °F 41 °F 28 °F (2001)
Degree Days  
Heating Degree Days 24    
Moisture  
Dew Point 39 °F    
Average Humidity 88    
Maximum Humidity 100    
Minimum Humidity 81    
Precipitation  
Precipitation 0.00 in - - ()
Sea Level Pressure  
Sea Level Pressure 30.18 in    
Wind  
Wind Speed 1 mph ()    
Max Wind Speed 5 mph    
Max Gust Speed -    
Visibility 2.8 miles    
Events Fog    
Averages and records for this station are not official NWS values.
T = Trace of Precipitation, MM = Missing Value Source: Averaged Metar Reports

Daily Weather History Graph

Daily Weather History Graph

Search for Another Location

Airport or City:

Trip Planner

Search our weather history database for the weather conditions in past years. The results will help you decide how hot, cold, wet, or windy it might be!

Date:

Astronomy

Nov. 15, 2012 Rise Set
Actual Time 7:28 AM GMT 4:17 PM GMT
Civil Twilight 6:51 AM GMT 4:54 PM GMT
Nautical Twilight 6:10 AM GMT 5:35 PM GMT
Astronomical Twilight 5:30 AM GMT 6:15 PM GMT
Moon 9:18 AM GMT (11/15) 5:43 PM GMT (11/15)
Length of Visible Light 10h 03m
Length of Day
8h 48m
Waxing Crescent, 4% of the Moon is Illuminated
Nov 15
Waxing Crescent
Nov 20
First Quarter
Nov 28
Full
Dec 6
Last Quarter
Dec 13
New

Hourly Weather History & Observations

Time (GMT) Temp. Windchill Dew Point Humidity Pressure Visibility Wind Dir Wind Speed Gust Speed Precip Events Conditions
6:50 AM 37.4 °F - 37.4 °F 100% 30.24 in 0.3 mi Calm Calm - N/A Fog Fog
7:20 AM 37.4 °F - 35.6 °F 93% 30.24 in 0.2 mi Calm Calm - N/A Fog Fog
7:50 AM 39.2 °F - 37.4 °F 93% 30.24 in 0.2 mi Calm Calm - N/A Fog Fog
8:20 AM 39.2 °F - 37.4 °F 93% 30.24 in 0.4 mi Calm Calm - N/A Fog Fog
8:50 AM 39.2 °F - 37.4 °F 93% 30.24 in 0.9 mi East 2.3 mph - N/A   Mostly Cloudy
9:20 AM 39.2 °F - 37.4 °F 93% 30.24 in 1.9 mi Calm Calm - N/A   Mostly Cloudy
9:50 AM 41.0 °F - 39.2 °F 93% 30.24 in 1.9 mi WSW 2.3 mph - N/A   Overcast
10:20 AM 41.0 °F - 39.2 °F 93% 30.24 in 2.2 mi West 2.3 mph - N/A   Overcast
10:50 AM 41.0 °F - 39.2 °F 93% 30.24 in 2.2 mi WNW 2.3 mph - N/A   Overcast
11:20 AM 42.8 °F - 41.0 °F 93% 30.21 in 1.7 mi Calm Calm - N/A   Mostly Cloudy
11:50 AM 42.8 °F - 41.0 °F 93% 30.21 in 2.2 mi Calm Calm - N/A   Mostly Cloudy
12:20 PM 42.8 °F - 41.0 °F 93% 30.18 in 3.1 mi SSW 2.3 mph - N/A   Overcast
12:50 PM 44.6 °F 43.1 °F 42.8 °F 93% 30.18 in 3.1 mi South 3.5 mph - N/A   Overcast
1:20 PM 44.6 °F - 41.0 °F 87% 30.18 in 3.7 mi Calm Calm - N/A   Overcast
1:50 PM 44.6 °F - 41.0 °F 87% 30.15 in 3.7 mi South 2.3 mph - N/A   Overcast
2:20 PM 44.6 °F 43.1 °F 39.2 °F 81% 30.15 in 3.7 mi SSE 3.5 mph - N/A   Overcast
2:50 PM 44.6 °F - 39.2 °F 81% 30.15 in 3.7 mi Calm Calm - N/A   Overcast
3:20 PM 44.6 °F - 39.2 °F 81% 30.15 in 3.7 mi SSW 2.3 mph - N/A   Overcast
3:50 PM 44.6 °F 42.2 °F 39.2 °F 81% 30.15 in 4.3 mi SSE 4.6 mph - N/A   Overcast
4:20 PM 44.6 °F 43.1 °F 39.2 °F 81% 30.15 in 3.7 mi SSW 3.5 mph - N/A   Overcast
4:50 PM 44.6 °F 43.1 °F 39.2 °F 81% 30.12 in 3.7 mi South 3.5 mph - N/A   Overcast
5:20 PM 44.6 °F 42.2 °F 39.2 °F 81% 30.12 in 4.3 mi South 4.6 mph - N/A   Overcast
5:50 PM 44.6 °F - 39.2 °F 81% 30.12 in 4.3 mi South 2.3 mph - N/A   Overcast
6:20 PM 44.6 °F 43.1 °F 39.2 °F 81% 30.12 in 4.3 mi South 3.5 mph - N/A   Overcast
6:50 PM 44.6 °F - 39.2 °F 81% 30.12 in 4.3 mi Calm Calm - N/A   Overcast
7:20 PM 44.6 °F - 39.2 °F 81% 30.12 in 4.3 mi SSW 2.3 mph - N/A   Overcast